Theta_e
325 326 328 329 330 331 332 332 333 333 333 333 332 332 332 332 332 332 331 331 331 330 330 330 329 329 329 330 330 329 325 317 316 316 316 320 328 337 334 334 331 330 327 315 309 306 304 305 308 308 306 304 306 305 307 308 307 306 298 293 292 292 294 295 296 295 297 297 297 299 300 300 298 300 302 302 302 303 305 310 313 322 322 324 324 327 328 328
326 326 328 329 330 330 331 331 331 332 332 332 332 332 332 332 332 332 331 331 330 330 330 330 330 329 329 330 329 327 321 319 315 315 316 329 337 335 335 333 331 330 317 307 306 305 305 306 304 309 303 300 313 304 308 304 308 300 296 295 291 293 295 298 297 298 298 297 299 300 300 302 301 300 300 299 297 301 302 303 312 318 321 324 325 326 326 326
324 324 327 328 328 328 330 331 330 331 331 332 332 332 332 332 331 331 330 330 330 329 329 330 330 329 329 328 326 326 320 316 316 312 319 336 336 335 334 333 332 330 310 307 308 307 309 303 305 309 304 300 303 302 305 301 305 300 297 294 294 297 297 297 297 299 299 300 299 299 300 301 301 301 302 299 298 299 300 302 306 316 318 320 322 324 325 325
325 326 326 327 328 328 328 328 330 330 331 331 331 331 331 331 330 331 330 330 329 329 329 329 329 328 328 327 326 322 320 317 311 316 320 334 334 335 336 334 330 327 307 308 307 306 307 306 305 304 304 301 302 302 301 300 299 299 296 295 297 298 297 297 297 297 300 302 300 300 298 298 300 300 301 298 298 297 298 305 306 312 319 320 322 323 324 324
324 325 326 326 327 328 328 329 328 330 331 331 331 331 330 330 330 330 330 329 329 329 329 329 328 328 326 326 326 320 317 307 310 320 323 333 333 336 336 334 332 319 307 306 306 305 307 305 305 304 305 304 300 299 297 300 302 302 296 298 298 296 296 298 297 296 299 299 301 298 298 298 300 300 299 299 296 294 298 302 306 317 322 321 321 322 323 323
323 324 325 325 326 327 328 329 329 330 330 331 330 330 330 330 330 329 329 329 329 328 328 328 328 327 325 325 320 317 313 296 311 318 330 333 332 331 334 332 330 312 308 307 305 304 305 304 303 303 305 304 298 294 297 299 303 295 296 298 296 297 297 298 297 296 297 300 300 298 299 299 298 298 299 298 297 297 299 300 304 317 324 324 324 323 322 322
322 323 324 324 326 327 327 327 327 329 329 330 330 329 330 330 329 329 329 328 328 328 328 328 328 326 325 323 318 319 312 312 315 320 330 333 331 330 333 331 329 310 308 306 305 304 304 304 304 303 304 303 298 296 298 298 302 299 295 297 297 298 298 297 297 294 296 300 299 300 300 299 297 296 299 298 298 298 301 302 304 316 325 325 323 323 322 322
321 322 323 323 324 326 326 327 328 329 329 330 329 330 330 330 329 329 328 328 328 327 328 327 327 325 324 315 312 309 310 310 318 317 330 333 330 329 329 323 317 310 307 305 305 303 305 303 302 301 305 304 297 297 298 296 299 297 296 297 296 297 297 297 295 294 296 297 297 299 299 298 297 296 298 298 298 300 307 309 307 316 324 324 323 322 322 322
321 321 322 322 323 323 325 326 327 327 329 329 329 329 329 329 328 328 328 328 328 328 327 327 326 325 323 316 312 306 307 317 325 328 328 328 325 324 322 317 315 306 305 305 306 305 304 304 303 306 299 299 299 296 297 295 292 297 297 296 297 297 298 296 296 296 296 297 297 297 294 295 296 298 297 298 298 301 307 313 314 318 321 321 321 322 321 321
321 322 322 322 323 324 324 325 326 327 328 328 329 328 329 329 328 327 328 328 328 327 327 326 325 324 317 314 312 304 313 325 328 325 324 322 321 319 317 317 312 305 304 303 305 305 304 305 303 304 303 300 300 296 297 296 297 298 297 297 295 296 297 297 297 297 297 298 297 295 294 296 296 297 293 297 300 302 309 313 315 317 318 320 320 320 321 321
321 322 322 322 322 324 325 325 326 327 327 328 328 328 328 328 327 327 327 328 327 327 327 326 325 320 313 314 307 304 313 325 326 324 320 318 317 314 315 316 311 305 304 303 304 306 306 305 305 304 304 300 298 296 296 297 298 298 296 295 296 296 297 297 296 297 297 297 295 295 295 296 296 296 290 295 301 302 307 309 313 315 316 317 318 318 320 321
321 322 322 323 322 324 325 325 326 326 327 327 327 327 327 327 327 327 327 327 327 327 326 326 324 317 314 311 308 309 312 323 324 323 319 318 315 315 317 315 310 306 305 302 303 307 306 306 305 304 299 303 296 296 296 297 297 297 297 295 295 296 296 296 294 296 296 295 297 296 295 295 295 293 295 295 300 299 303 305 307 310 313 314 316 317 318 321
320 322 322 323 323 323 325 325 326 326 326 326 326 326 326 326 326 327 327 326 327 327 326 325 321 319 311 304 308 312 313 322 322 322 319 317 314 312 313 312 309 307 306 304 303 305 306 305 304 301 302 300 297 294 297 298 296 298 297 294 293 293 291 295 296 295 296 296 296 297 287 289 294 297 295 296 297 297 299 300 301 303 305 309 313 315 317 319
319 321 322 322 323 323 324 326 326 326 325 326 326 326 326 326 326 327 326 326 327 326 326 325 320 315 309 304 310 313 316 321 321 320 316 313 311 307 309 310 309 307 312 308 306 306 305 305 304 302 304 298 295 302 297 296 299 292 294 295 289 288 286 294 295 294 295 297 296 296 288 287 293 294 295 295 297 297 297 298 299 299 302 303 309 311 314 316
319 320 321 322 322 322 323 325 326 326 326 326 326 325 325 325 326 326 326 325 326 326 325 323 319 310 302 306 308 313 326 320 316 315 312 310 306 304 305 305 306 306 304 305 307 306 305 304 303 299 296 299 300 296 292 293 293 294 291 287 291 287 286 293 296 295 295 296 296 294 289 289 291 293 295 296 295 296 296 296 299 300 299 303 305 309 311 313
319 320 321 321 321 322 323 324 324 325 326 325 325 324 324 324 325 326 326 324 325 325 322 316 314 313 302 300 304 323 314 310 312 313 309 309 307 305 305 303 302 303 305 302 303 304 304 303 299 297 297 298 295 292 290 289 290 293 289 286 288 287 288 292 294 294 296 294 296 293 288 289 291 293 295 295 296 295 295 294 297 300 299 300 304 308 310 311
319 321 321 321 321 323 323 323 323 324 324 324 324 323 323 324 324 324 324 324 322 322 317 310 314 313 300 305 309 305 303 307 311 310 308 308 307 304 303 302 300 300 301 302 304 303 302 300 300 298 299 292 292 293 287 285 285 287 289 286 289 288 287 287 291 294 295 294 292 293 290 289 290 293 294 296 294 293 294 294 295 298 299 299 302 306 309 310
320 321 321 321 321 322 323 323 323 324 324 323 322 322 321 323 324 323 320 319 318 317 317 312 313 308 304 302 298 302 306 305 308 308 308 307 306 305 303 300 298 299 301 299 302 298 299 295 297 291 292 292 292 290 285 282 285 286 287 286 286 288 289 290 289 292 294 294 292 291 290 292 292 292 293 295 294 294 294 294 294 296 298 299 301 304 307 308
320 321 322 322 322 321 322 322 323 323 322 322 323 323 323 322 319 318 313 311 305 300 298 299 302 297 297 302 303 304 305 307 308 308 303 303 304 304 301 300 300 298 296 296 295 297 297 297 298 290 288 290 290 290 288 291 292 290 290 288 288 288 286 288 291 293 295 292 291 289 290 292 294 292 293 293 293 293 294 293 292 293 296 298 300 302 304 306
320 321 322 322 322 321 322 323 323 323 322 320 318 316 313 307 306 303 309 307 302 301 303 303 307 304 301 304 302 305 309 309 303 304 304 304 303 300 299 298 298 298 294 292 294 295 298 290 287 288 290 291 292 292 292 293 293 292 294 292 290 289 289 290 292 293 293 292 291 291 292 291 292 292 294 294 292 292 291 292 294 294 294 296 299 301 302 303
320 321 321 322 322 321 322 323 323 322 321 318 315 309 301 301 297 295 301 303 306 306 303 303 306 305 302 304 304 304 301 301 304 302 304 307 303 300 295 296 293 291 290 293 292 296 294 288 287 290 291 292 292 292 293 293 293 291 291 291 289 290 287 290 291 293 293 292 290 290 290 290 291 292 293 293 291 293 293 293 293 294 294 295 297 298 300 302
320 320 321 321 321 321 322 322 321 320 320 317 313 307 308 308 310 310 306 296 302 305 304 303 306 304 305 305 307 307 305 299 302 307 306 304 300 295 293 293 291 289 290 291 292 289 287 286 289 291 293 293 292 292 292 292 291 292 290 288 288 288 290 291 290 293 293 292 287 287 289 291 292 293 292 292 293 294 295 295 295 295 294 295 295 295 297 297
320 321 321 321 321 321 322 321 320 319 316 313 308 309 308 311 313 313 309 302 298 304 301 300 301 300 302 305 306 308 300 298 297 301 302 304 298 295 295 291 289 290 290 291 288 286 284 286 291 293 293 293 291 292 292 291 291 290 289 287 285 289 288 286 289 291 292 288 288 287 287 289 291 291 292 292 294 294 295 295 295 295 296 296 296 296 297 297
320 320 320 320 321 321 321 320 320 316 313 312 310 309 312 313 312 310 304 296 294 300 301 301 303 300 301 300 304 305 300 299 301 297 305 302 296 296 295 292 289 290 288 290 289 287 286 289 292 292 292 292 291 290 290 289 288 291 292 290 289 290 289 287 288 290 290 290 290 287 285 286 287 289 290 293 294 294 294 293 294 294 296 297 297 296 297 297
319 319 320 320 320 320 319 319 313 312 314 312 309 312 313 313 312 310 302 297 294 294 303 302 305 304 303 307 305 301 299 300 302 303 303 302 296 294 293 294 291 288 289 289 290 288 288 290 292 290 290 291 291 289 289 290 286 288 291 291 292 291 289 289 290 287 285 285 287 288 278 278 282 286 290 293 292 292 292 293 294 295 295 294 294 296 296 297
319 319 319 319 319 319 320 312 310 313 311 307 309 313 313 312 310 307 301 289 285 292 298 292 306 298 309 300 304 299 302 296 301 303 304 302 302 298 295 292 292 287 289 289 289 287 289 289 291 291 290 290 291 289 290 291 287 286 287 292 290 291 290 289 288 288 281 281 287 287 281 275 281 283 286 288 287 290 292 292 294 295 296 295 296 297 296 297
319 319 319 319 319 319 312 304 314 313 306 306 313 313 312 310 309 305 297 286 283 292 291 300 300 299 307 301 301 301 290 291 298 302 302 304 300 301 293 289 291 292 292 291 288 285 287 288 289 291 290 290 289 288 290 291 288 284 290 293 292 291 289 288 288 287 284 287 291 288 281 277 279 285 287 287 286 288 289 290 292 294 294 296 297 297 296 299
319 319 319 319 319 317 312 313 310 307 308 311 314 312 309 308 306 301 292 278 277 297 291 294 300 307 304 302 302 297 294 299 294 297 302 303 300 297 295 290 290 290 292 290 282 290 288 287 289 289 289 288 289 289 292 292 289 288 293 294 292 292 289 290 289 286 287 285 282 283 288 282 276 281 285 287 287 287 288 290 292 294 295 296 296 297 296 297
318 318 318 318 318 318 317 312 310 307 311 312 311 308 309 308 303 295 286 277 290 289 305 294 307 301 299 301 297 297 297 300 294 298 301 302 302 295 290 291 292 290 290 291 286 288 288 289 291 292 290 288 289 291 292 293 289 293 294 295 294 293 292 291 285 287 285 281 278 281 284 278 278 280 284 284 286 286 288 291 293 294 295 295 296 297 297 296
318 318 318 318 317 314 313 314 310 313 313 312 309 308 309 305 296 289 282 275 293 284 296 296 296 293 297 294 293 297 295 295 295 297 299 296 297 298 295 294 292 291 289 290 288 287 290 291 292 290 290 290 289 290 290 292 292 294 293 292 290 288 286 284 284 282 284 277 278 281 283 282 277 281 285 286 286 288 290 288 288 290 292 293 294 295 296 296
318 318 317 317 311 312 312 307 310 313 312 311 309 309 305 295 288 283 277 285 292 290 295 293 292 297 292 291 288 295 294 293 294 296 294 296 293 295 293 291 293 288 284 286 285 287 287 290 291 289 290 290 291 290 292 293 293 294 288 285 287 285 283 282 282 283 277 274 277 280 283 283 276 277 283 287 286 286 290 290 292 292 293 293 293 294 295 296
317 318 318 315 315 315 308 305 312 313 312 311 309 303 298 285 286 280 279 294 284 286 288 289 294 292 291 294 291 292 290 292 294 294 292 291 289 290 291 287 289 282 282 284 283 285 284 285 289 290 293 292 289 289 288 290 291 290 288 286 283 279 279 275 278 276 275 275 280 279 282 282 281 284 287 288 289 288 287 289 291 292 294 295 294 294 294 295
317 317 317 315 315 312 313 314 314 313 311 310 305 300 291 284 277 284 283 287 282 291 288 295 292 291 291 290 289 291 293 289 292 293 294 291 289 289 290 288 289 286 280 280 282 282 282 283 288 289 290 292 291 288 283 285 287 288 286 282 280 276 273 270 269 272 272 277 280 281 281 280 281 284 291 292 296 296 291 289 290 294 295 295 295 294 295 295
317 316 313 314 314 314 313 314 313 312 309 307 301 294 289 282 280 292 285 286 286 292 293 292 292 291 291 288 288 292 288 291 291 290 292 288 289 286 289 289 290 287 284 282 282 281 277 278 284 286 284 290 290 289 289 287 288 289 288 287 283 282 275 271 273 273 274 274 277 280 279 275 278 283 285 291 293 293 288 291 292 292 294 294 294 294 294 295
316 315 313 313 312 313 314 314 313 311 307 302 295 290 282 281 286 284 283 286 288 291 290 294 291 289 288 289 289 292 290 285 291 290 288 288 286 287 287 288 290 289 286 284 282 280 283 280 284 289 288 289 289 292 292 289 288 286 289 290 285 284 284 278 278 276 273 273 275 277 277 278 283 285 289 288 289 292 291 292 292 293 294 293 294 296 296 297
314 311 313 309 309 311 314 314 312 309 304 298 291 285 283 286 283 289 286 292 291 288 289 292 291 287 286 285 288 290 292 289 289 289 286 288 289 287 289 289 289 291 288 284 283 278 280 279 285 287 288 288 289 289 292 291 283 286 288 283 284 289 285 280 280 282 277 274 273 275 279 281 283 288 293 289 288 290 290 290 290 291 291 292 292 293 294 295
308 310 306 308 308 312 313 313 311 307 302 296 289 283 288 289 291 291 293 290 290 292 290 284 285 286 284 283 285 288 289 291 288 287 284 288 285 289 289 290 293 290 292 289 283 284 281 279 285 284 286 289 288 287 290 289 289 286 282 286 289 292 289 285 279 277 276 273 274 277 277 277 280 279 285 288 287 288 287 289 289 289 289 291 292 293 295 296
307 306 306 306 309 313 314 313 309 304 299 294 287 290 289 288 293 292 292 292 292 293 289 287 286 290 285 285 284 288 289 288 286 286 283 288 282 292 289 289 291 293 291 290 287 284 286 279 283 286 285 287 289 291 290 291 291 287 286 291 288 282 282 283 281 274 273 271 271 276 276 276 278 281 282 284 285 289 289 288 288 290 290 292 292 293 295 295
307 304 298 305 311 313 312 312 307 300 295 289 287 287 289 290 295 292 294 294 294 291 288 288 286 288 288 285 286 289 289 285 287 285 283 285 282 289 291 292 289 291 292 290 288 286 286 280 280 284 286 287 285 285 283 284 289 291 290 287 288 286 283 281 281 279 279 273 274 272 276 277 280 281 283 288 287 288 288 286 288 290 291 292 292 295 296 296
302 299 296 308 311 312 312 309 302 297 292 286 288 287 292 289 291 294 295 295 291 291 287 288 289 286 287 287 288 287 288 288 287 285 286 286 285 290 291 294 291 291 292 291 290 291 284 283 275 282 286 286 282 283 283 285 283 283 283 283 285 284 285 283 284 280 277 273 271 269 272 274 280 286 286 289 288 287 287 289 289 289 290 291 293 296 295 294
304 298 297 309 310 311 309 303 295 290 289 287 289 289 290 289 291 293 295 296 294 296 290 290 289 287 287 287 287 290 287 287 288 286 285 285 288 282 291 293 292 290 291 292 291 288 283 281 279 280 281 280 280 284 285 286 287 285 286 284 287 281 281 279 279 281 278 278 273 272 274 275 283 288 288 288 289 290 289 288 289 288 290 291 293 295 294 294
298 290 294 309 310 309 302 293 292 294 287 286 287 288 289 298 291 292 294 296 295 292 296 292 292 290 289 289 289 289 288 287 287 286 286 284 289 287 289 294 294 294 292 286 288 289 285 279 282 276 279 281 284 289 287 288 287 287 286 285 287 285 283 280 277 278 279 278 277 274 273 278 286 287 287 288 287 288 288 289 291 292 291 291 294 295 294 294
296 293 305 308 309 307 299 292 293 290 286 287 291 291 293 292 291 292 292 294 293 294 292 291 291 290 291 291 290 290 290 285 288 286 286 286 288 290 291 294 295 294 294 286 290 288 290 282 279 280 283 283 285 287 287 287 287 287 286 285 285 284 285 283 281 281 281 277 277 277 275 273 283 287 285 286 287 286 287 287 289 291 291 292 293 295 295 296
297 296 299 307 309 306 296 287 286 287 286 290 291 290 292 291 292 291 292 293 293 292 291 290 291 294 291 293 292 289 292 284 288 288 286 288 288 292 291 293 296 293 293 291 291 292 283 281 283 277 275 277 277 281 282 285 286 282 282 284 285 286 285 280 281 281 281 279 281 277 277 277 282 280 283 286 287 287 287 287 287 290 292 293 294 295 295 295
298 300 299 301 306 303 293 294 290 288 288 288 289 288 290 289 293 293 293 292 292 292 291 288 291 293 290 293 291 292 292 289 285 288 288 287 289 290 292 293 296 293 294 294 296 295 285 283 284 277 275 272 269 272 278 280 281 281 281 283 286 287 284 283 280 280 278 277 279 275 278 281 283 283 286 285 285 286 287 287 287 288 292 294 294 295 295 294
294 286 294 296 299 298 296 296 294 290 287 285 286 285 288 289 291 291 294 291 293 292 290 291 290 293 290 291 288 288 289 289 289 286 288 286 286 289 290 292 294 294 293 296 294 293 282 286 286 284 282 280 282 282 284 286 285 284 285 285 285 287 286 286 283 280 281 279 279 281 285 284 284 285 285 286 285 287 288 288 290 289 289 292 294 295 294 294
297 289 289 286 295 295 293 294 291 291 288 291 286 287 287 290 289 291 292 290 292 293 291 292 292 291 289 290 288 288 289 287 286 289 285 286 284 286 289 290 289 292 295 293 294 290 284 283 286 284 284 285 283 284 287 290 285 286 285 284 285 285 284 285 283 282 284 280 280 284 285 283 286 286 286 286 286 286 288 289 290 289 289 293 295 293 294 294
289 292 295 296 290 286 288 290 293 290 291 291 287 290 288 289 289 288 290 291 291 293 292 290 293 293 291 290 289 285 286 285 287 286 285 283 285 287 288 288 289 291 291 291 290 288 285 284 284 284 283 286 285 286 288 288 287 286 286 286 284 285 284 284 285 288 285 283 282 287 286 284 286 287 289 289 288 289 290 291 291 291 290 292 292 292 293 293
294 294 295 297 289 292 292 293 293 290 289 290 287 290 288 289 288 290 288 288 291 291 291 287 289 291 292 292 291 286 287 284 283 284 283 283 284 282 281 286 289 286 289 287 287 286 287 281 283 285 283 286 284 286 287 287 284 283 284 285 286 285 286 287 287 288 287 285 287 288 287 287 289 288 289 290 289 289 288 288 288 289 291 294 293 292 293 292
291 291 288 295 292 292 292 292 291 289 287 290 285 288 290 290 289 289 290 291 288 290 290 291 289 290 291 291 291 288 289 291 289 285 285 287 283 283 284 283 285 284 285 286 287 287 287 281 288 284 284 285 288 288 287 286 285 283 283 284 285 286 286 287 288 288 286 286 287 285 283 285 288 289 290 289 288 290 289 289 291 292 292 293 294 293 293 293
289 290 294 292 287 291 292 293 291 289 287 288 284 287 289 290 289 292 289 293 294 290 290 290 291 290 291 291 290 290 292 290 292 292 290 291 287 290 289 283 288 287 287 286 285 286 286 279 283 282 280 280 283 286 286 285 284 285 284 284 285 284 283 285 284 287 284 284 286 283 283 285 289 289 290 290 289 290 291 291 291 291 292 294 294 294 294 294
293 295 296 295 286 292 290 292 291 289 285 289 289 288 289 289 291 292 289 291 292 294 294 293 292 292 288 289 289 291 292 293 295 293 293 294 294 291 289 291 292 290 288 288 286 287 286 283 282 280 279 277 278 281 281 282 283 282 284 286 287 287 288 288 289 288 289 289 285 283 285 291 288 290 292 291 289 289 290 291 291 291 292 294 295 295 295 295
Wind_Speed
18 19 23 25 26 26 25 26 27 26 24 22 22 21 21 20 22 22 22 17 18 17 16 15 16 14 12 12 13 12 10 5 2 2 2 5 6 9 10 12 10 8 8 5 5 5 6 8 8 11 10 5 2 1 2 1 1 2 2 2 2 4 1 3 5 5 4 8 5 5 4 7 5 0 1 3 7 7 5 9 3 8 6 3 7 14 14 14
15 17 22 26 27 28 26 25 26 26 25 23 22 22 21 21 20 22 22 19 19 17 17 16 15 14 12 12 13 11 5 3 3 3 10 3 11 11 13 12 11 11 11 8 6 5 8 4 6 8 8 5 1 1 0 1 1 2 1 2 6 2 3 1 2 4 6 3 9 5 2 6 6 8 4 5 4 6 6 3 3 8 6 8 11 13 14 14
14 17 20 25 21 20 22 26 25 25 25 23 22 22 21 20 19 21 21 20 20 18 18 16 15 14 13 14 12 9 4 2 0 8 10 9 12 14 13 13 12 9 6 10 4 5 7 5 5 4 5 6 3 1 1 1 1 3 2 2 5 3 2 3 3 4 3 11 8 7 4 5 5 3 2 4 8 7 8 7 2 8 9 9 10 12 13 13
15 18 19 23 28 24 28 25 26 27 25 24 23 22 21 20 19 20 21 21 21 20 18 17 17 16 15 14 12 6 2 4 4 5 5 15 14 15 13 11 12 6 5 7 9 8 8 7 8 8 3 2 6 3 1 3 1 2 2 3 2 1 1 3 4 5 5 12 10 8 4 4 5 4 4 7 8 4 5 9 12 10 12 11 12 12 12 13
15 18 19 19 22 26 26 27 27 25 25 25 23 23 21 20 19 19 20 21 21 20 19 18 17 16 16 14 12 4 5 2 5 7 12 18 18 15 12 12 11 5 4 7 9 9 6 11 4 6 3 4 4 6 3 3 2 1 5 6 2 2 0 1 3 6 1 4 11 6 7 5 1 3 5 10 8 6 7 9 8 16 15 15 13 12 11 13
15 18 20 21 19 25 28 26 25 27 25 25 26 23 22 21 20 19 19 21 22 21 20 19 18 17 16 14 6 1 4 6 1 1 5 23 21 19 16 13 11 7 7 6 7 9 12 6 7 4 2 2 2 6 9 3 3 2 3 3 1 3 2 1 4 5 0 5 6 7 4 5 4 4 4 7 6 4 4 4 9 16 17 16 15 13 12 12
16 18 21 21 19 23 26 20 25 28 28 28 26 25 22 22 20 18 18 20 22 21 21 20 19 18 16 11 2 1 7 5 2 3 3 17 20 20 17 14 11 6 6 9 9 6 10 10 6 3 3 0 4 3 11 4 2 4 5 0 1 1 2 1 1 5 2 10 6 4 5 5 6 5 2 3 2 3 3 3 12 16 13 13 13 13 16 15
18 18 21 21 20 21 21 27 26 27 28 27 26 25 23 23 21 19 18 19 21 21 21 20 19 18 16 6 6 2 3 12 5 2 4 13 15 16 17 11 10 4 7 10 11 11 14 13 9 4 2 1 4 2 7 11 2 4 4 1 1 1 1 0 1 3 3 3 1 7 6 5 4 4 3 3 4 4 1 4 11 13 14 13 15 14 12 12
20 19 20 22 22 23 22 23 26 25 27 27 28 26 25 24 22 20 19 19 20 21 21 20 20 17 12 7 8 6 12 6 3 2 9 13 10 11 16 9 8 9 6 5 7 11 12 4 9 4 4 3 6 9 8 5 6 3 5 2 1 0 0 1 1 1 2 1 3 6 3 1 1 1 3 5 5 3 4 11 11 13 14 13 14 14 13 12
21 21 22 22 23 23 22 25 27 27 25 25 26 28 26 24 23 21 20 19 19 20 21 21 18 18 8 7 5 10 6 7 4 5 10 12 11 12 10 13 11 6 7 4 4 7 7 7 10 5 6 1 8 9 8 3 4 2 1 3 5 3 2 1 1 0 1 1 1 6 2 1 2 1 3 2 6 4 7 11 11 13 13 12 11 11 11 14
22 23 22 23 25 24 24 23 26 29 27 26 26 27 27 24 24 22 20 19 20 20 21 21 20 14 8 10 12 12 1 4 4 7 10 11 12 13 11 12 11 7 6 4 6 7 8 12 7 6 4 2 2 7 4 3 6 4 4 2 3 2 2 0 2 1 1 0 2 6 1 0 2 1 5 5 7 8 11 10 10 10 11 10 10 11 10 11
23 24 23 24 26 24 25 24 23 27 28 26 26 26 26 24 25 22 21 20 20 21 21 20 22 7 5 9 11 8 1 4 4 8 10 14 10 10 9 10 9 7 8 8 5 4 10 11 9 4 7 4 2 6 3 3 4 4 3 2 0 1 1 1 4 2 1 1 2 3 3 1 1 6 7 6 7 6 11 10 10 10 10 9 9 9 8 10
24 25 24 24 27 26 26 26 25 25 27 27 25 24 25 24 25 24 21 19 22 19 20 20 14 1 7 8 8 3 2 6 6 10 7 6 6 2 3 5 6 1 6 10 6 5 7 10 8 7 2 1 2 4 2 4 4 1 2 1 1 0 2 5 0 2 2 1 1 1 2 6 9 12 4 5 8 5 7 7 7 8 8 9 9 9 10 7
25 26 25 26 28 28 28 28 28 26 26 26 26 25 25 24 25 24 23 18 22 20 18 20 6 3 6 4 1 2 5 5 7 12 9 8 9 2 5 4 1 1 1 3 5 7 8 9 9 3 0 3 3 2 5 3 1 2 2 1 2 2 3 3 4 4 3 1 1 1 3 5 5 7 5 5 7 10 9 7 7 6 7 7 8 9 10 10
27 27 26 25 28 30 29 28 28 29 28 27 28 27 26 26 25 25 23 22 21 17 19 14 1 5 4 2 3 3 11 6 8 8 11 14 9 4 5 5 3 2 2 3 3 3 7 8 7 5 4 2 3 7 6 1 1 1 3 4 0 4 4 2 1 7 6 1 1 2 1 7 6 5 4 7 6 7 8 7 7 7 6 7 7 8 9 10
29 29 28 27 25 31 31 29 29 27 28 28 28 28 26 26 25 24 24 19 17 16 12 9 1 1 7 5 2 5 6 5 8 8 4 16 12 10 8 6 4 4 3 3 2 3 4 4 6 5 3 1 4 3 4 3 2 1 4 1 3 3 4 1 2 4 2 3 0 2 4 2 3 3 2 4 8 7 8 6 6 8 8 7 7 7 8 7
31 31 30 29 28 29 32 30 29 30 28 30 29 28 27 25 25 23 19 19 11 8 7 3 3 2 8 2 2 10 4 3 8 4 5 4 9 11 10 9 4 5 5 3 2 6 3 5 0 1 2 3 4 3 3 5 3 3 1 3 3 6 2 2 3 2 2 5 4 2 2 4 3 1 3 3 5 5 7 8 8 8 8 8 7 7 8 9
32 32 31 30 31 28 30 31 27 30 32 30 30 29 27 26 27 25 17 12 7 5 2 4 2 4 4 2 11 14 6 7 9 9 8 4 10 13 13 6 3 9 8 4 2 5 3 4 4 5 5 6 6 6 8 7 5 1 2 3 5 1 6 5 3 4 6 2 5 3 3 8 8 2 4 5 3 7 7 8 9 9 8 8 8 8 9 9
34 33 32 32 32 32 30 32 31 27 33 29 33 34 32 28 15 11 11 11 14 6 5 6 10 12 13 23 7 10 10 10 8 12 6 10 6 7 4 4 11 12 6 8 3 6 2 2 3 5 9 10 10 8 6 2 6 6 7 6 5 4 3 4 5 1 8 6 4 5 7 10 11 5 4 4 4 6 8 6 5 6 7 8 9 9 8 9
35 34 33 33 33 33 31 33 35 33 30 28 23 20 15 13 10 9 8 11 14 18 3 27 20 4 6 16 10 7 10 12 11 4 7 5 11 6 5 6 5 4 8 9 3 4 4 6 9 10 7 7 6 5 6 7 10 2 1 3 8 8 2 2 2 1 0 3 7 8 9 7 7 5 7 6 3 4 4 6 8 7 7 9 9 10 12 11
36 35 34 33 34 34 32 32 32 41 35 23 22 20 17 20 22 15 17 18 17 10 6 11 14 4 0 9 13 20 15 3 3 7 10 8 7 13 5 7 7 7 6 8 8 1 4 6 7 5 5 5 7 5 5 8 11 6 2 2 6 4 6 2 1 0 2 2 3 3 3 6 8 6 8 3 4 9 11 9 9 10 9 8 11 12 11 12
36 35 34 33 34 36 34 33 33 33 38 23 20 11 11 20 2 17 23 13 9 12 7 16 14 5 1 15 17 16 12 8 8 1 2 7 7 8 4 5 10 10 4 5 6 4 5 9 6 7 7 6 6 7 7 9 11 4 4 3 3 6 1 1 1 1 1 1 5 3 6 9 9 9 5 5 9 8 11 12 13 13 10 9 8 9 10 6
36 35 35 35 34 37 39 36 34 29 19 20 17 5 15 5 19 16 11 11 11 7 3 13 17 6 7 6 11 18 17 16 14 13 9 5 9 3 11 7 8 7 5 7 10 6 6 6 8 8 8 8 6 8 9 9 7 7 3 1 5 5 6 3 2 1 1 1 1 1 1 8 6 5 7 7 9 7 8 11 9 9 13 12 12 12 11 12
35 34 34 35 34 34 40 43 36 25 16 23 16 8 8 14 21 19 16 6 10 9 5 7 14 5 8 11 5 15 20 7 15 15 9 8 11 5 8 10 9 8 10 9 9 9 5 3 7 8 9 10 9 6 9 9 8 4 4 1 1 2 3 3 4 1 1 1 1 1 4 7 5 6 6 6 9 7 5 6 7 7 9 10 8 7 10 13
36 34 34 36 36 36 33 40 24 20 20 14 5 7 8 14 18 17 18 8 2 1 7 4 5 2 7 2 5 6 3 5 9 13 9 11 6 5 5 4 6 9 9 9 8 8 7 4 4 7 9 10 9 7 9 8 7 4 4 6 3 3 5 3 5 5 2 2 1 2 2 5 5 7 12 11 5 7 6 8 11 13 12 8 7 12 10 9
36 37 35 33 36 39 40 18 17 17 20 14 11 14 12 14 12 8 13 4 7 3 7 11 4 8 3 5 5 5 13 6 4 9 11 9 9 9 4 6 4 11 9 9 8 4 7 1 6 8 8 9 8 6 5 10 7 6 5 3 5 7 6 7 5 3 1 2 2 1 8 6 6 4 5 7 5 10 6 8 13 12 12 10 12 12 10 12
37 37 37 36 34 40 25 7 13 19 19 9 8 11 11 9 2 4 11 3 4 4 10 5 8 3 2 8 7 11 10 7 2 5 8 6 10 1 12 5 4 2 5 3 1 6 2 2 3 3 7 10 9 9 4 9 7 6 1 3 7 8 7 6 6 3 1 1 1 2 3 3 6 9 6 5 5 9 9 8 10 10 10 12 13 11 9 10
40 37 38 39 37 35 16 15 20 21 17 14 15 10 10 7 3 4 5 8 6 10 5 3 4 1 1 8 8 6 1 15 8 7 7 3 3 0 6 11 10 11 7 5 11 1 7 5 6 7 5 7 10 6 4 7 6 3 2 6 6 8 6 6 6 3 1 1 4 1 0 0 5 8 7 2 5 6 8 9 11 12 12 11 10 10 9 9
37 42 39 41 45 23 13 18 21 19 11 12 10 8 6 6 2 7 5 8 2 3 4 14 0 7 4 9 5 2 8 9 9 11 1 1 1 4 7 8 8 9 2 8 9 2 2 8 14 13 9 9 4 5 4 10 5 2 3 5 4 5 4 6 4 4 1 1 5 4 2 3 7 7 5 2 1 6 8 10 11 11 12 12 12 11 9 7
37 41 41 41 27 14 14 13 11 11 14 15 14 12 11 5 6 10 9 8 6 5 7 3 7 15 12 15 8 7 13 2 3 5 5 5 2 0 1 4 6 6 3 4 4 6 2 2 1 2 7 4 5 1 1 2 2 4 5 7 5 6 4 2 5 3 2 3 7 6 4 3 4 4 6 5 5 7 8 5 6 6 7 9 9 8 7 8
37 38 42 38 18 14 17 14 11 13 14 15 15 16 12 3 7 9 14 4 5 3 3 10 7 13 16 17 12 6 8 4 7 13 8 2 1 1 5 4 3 6 5 3 3 3 2 1 1 1 0 1 3 4 4 1 3 9 3 4 7 4 6 3 2 3 2 6 5 2 2 5 6 4 6 8 6 5 7 8 9 8 8 9 7 5 5 5
39 40 41 26 15 18 22 19 19 17 16 19 17 15 12 10 4 9 7 6 10 9 13 12 11 14 20 17 11 12 10 6 11 15 14 9 8 11 12 12 11 9 8 10 7 2 1 0 1 4 3 4 3 6 3 3 1 4 7 7 8 1 2 1 1 2 4 6 0 2 1 1 9 7 9 7 8 7 6 7 7 8 4 3 3 4 4 4
38 42 38 17 20 13 13 17 19 17 18 19 16 11 10 12 14 6 6 12 3 15 10 17 20 21 19 15 10 7 4 11 6 11 14 5 7 6 2 3 6 7 10 2 6 4 2 2 2 3 4 2 4 11 2 2 1 5 9 7 6 3 2 3 3 1 3 4 3 1 1 3 3 6 13 15 18 16 8 8 5 7 7 6 5 4 4 4
37 38 20 15 14 13 17 18 17 19 22 18 15 12 5 12 10 7 11 10 8 8 15 15 18 11 16 14 12 12 8 2 12 7 12 9 10 11 9 6 9 6 6 5 9 8 6 2 6 4 1 1 1 2 9 8 7 8 4 9 7 7 5 4 3 4 7 6 1 3 2 6 4 4 3 9 9 9 4 3 2 3 5 5 4 3 2 4
38 25 18 13 11 14 20 18 22 23 16 15 14 14 17 11 8 16 7 5 6 10 14 14 16 17 12 6 5 6 4 4 7 12 8 14 13 13 16 13 7 7 5 11 5 3 10 2 3 3 1 1 6 1 2 5 2 2 2 4 6 8 5 5 5 5 2 1 1 0 5 5 5 3 7 4 3 1 0 0 2 5 3 3 4 5 6 6
29 12 16 11 13 15 18 17 21 22 17 14 14 13 16 15 16 13 10 10 14 15 17 20 15 15 12 6 5 11 5 8 8 7 6 11 11 11 6 4 9 13 13 11 4 4 3 4 3 6 3 1 1 1 1 2 7 4 4 5 3 2 9 5 2 0 4 3 6 2 4 6 7 8 11 5 4 7 2 3 1 2 3 2 5 6 6 6
14 15 11 13 16 17 18 18 17 18 16 15 14 14 13 8 1 7 8 17 15 22 20 21 12 15 11 10 10 13 7 9 11 9 9 6 4 11 11 9 9 6 10 10 3 2 11 2 1 3 2 0 0 0 2 1 2 6 2 8 1 2 4 5 4 0 1 4 6 3 6 5 1 6 4 2 2 7 5 5 5 4 4 5 7 6 6 6
15 11 15 16 18 17 16 18 18 13 12 15 14 10 1 5 2 10 8 14 14 18 16 16 8 15 19 18 16 19 10 16 14 8 7 13 4 9 9 7 7 11 8 4 9 3 8 3 1 1 2 6 1 0 1 1 0 4 7 3 7 4 3 2 4 2 2 2 2 2 3 4 6 6 4 4 4 8 9 6 4 6 7 8 6 6 5 3
13 15 8 12 15 18 17 16 14 14 12 11 13 11 2 1 5 10 16 16 15 18 19 11 15 8 14 15 12 12 16 13 14 9 11 9 7 10 18 8 6 6 9 8 6 3 3 7 2 2 1 1 2 3 8 4 2 0 1 1 1 3 2 4 6 4 5 5 1 6 2 5 6 6 6 9 9 9 7 4 7 9 8 7 6 6 5 6
14 9 5 13 14 17 18 16 11 11 10 19 14 5 10 6 3 16 16 21 10 13 5 13 12 14 11 8 18 15 11 12 15 8 7 4 5 2 14 10 9 10 11 5 3 6 3 2 5 2 2 2 3 2 7 8 7 1 2 2 0 1 2 4 1 4 5 4 3 2 2 4 6 6 4 8 5 5 5 7 7 7 6 5 6 7 6 6
6 10 8 11 14 17 18 12 12 16 15 3 3 0 9 4 6 11 21 19 10 2 7 14 15 15 15 11 14 10 7 10 13 10 6 7 13 5 9 15 9 11 6 4 5 5 3 2 8 1 2 4 5 1 2 5 4 4 9 10 10 7 4 5 7 2 1 2 4 3 8 7 9 2 4 4 4 2 2 4 5 5 5 6 6 6 7 7
12 9 8 15 18 23 21 18 12 11 3 9 13 4 5 4 9 13 14 12 13 5 4 8 9 8 12 12 13 11 11 11 10 8 5 8 10 1 6 11 13 12 12 7 8 2 7 3 9 5 7 7 3 2 2 1 0 2 1 5 5 2 5 4 6 5 2 1 3 2 1 8 6 2 2 3 3 4 3 0 3 2 3 4 5 6 5 5
7 7 13 22 20 24 19 16 14 9 5 4 3 2 1 5 8 10 14 9 9 5 8 6 11 12 9 11 11 11 11 5 14 12 4 5 7 3 7 15 15 15 10 3 5 4 10 5 6 2 1 3 3 3 2 0 0 1 3 1 2 5 3 5 5 6 7 1 2 1 5 6 1 1 5 5 4 4 4 2 2 2 3 3 4 3 4 3
11 14 9 5 12 15 17 17 14 11 4 1 1 3 4 3 11 10 10 13 7 8 10 7 8 11 11 7 16 16 16 7 7 6 2 5 8 3 6 14 21 11 15 10 12 9 4 2 10 5 2 2 4 2 2 1 1 1 2 2 1 1 1 1 3 1 2 6 7 6 13 3 3 2 4 3 4 4 5 4 4 4 4 4 4 3 2 4
11 6 7 9 6 8 14 5 16 20 17 14 9 8 5 2 2 8 13 11 4 7 7 6 8 8 4 12 11 10 15 9 6 4 3 2 3 1 1 14 22 14 10 8 9 8 4 6 10 8 10 8 4 5 11 11 8 2 1 3 6 7 6 3 2 1 4 2 5 3 9 6 7 5 4 4 2 4 5 4 4 4 4 4 3 3 4 5
13 13 5 5 2 6 1 5 3 6 7 6 7 3 3 6 2 5 13 3 0 5 4 6 5 11 9 12 8 8 11 1 11 7 9 6 2 1 3 8 13 10 3 14 11 10 3 4 4 10 14 15 15 3 4 12 5 9 9 10 7 5 6 5 4 4 10 5 7 9 13 7 5 4 3 7 3 5 5 3 4 5 5 4 4 4 5 5
5 13 17 14 5 5 6 2 5 10 13 12 11 6 8 11 4 3 4 5 3 8 4 9 9 12 10 18 15 12 11 5 3 10 6 9 0 2 5 9 6 7 12 9 12 7 3 4 8 6 6 2 4 4 9 18 14 14 9 8 8 7 7 8 9 10 4 5 9 10 10 7 10 5 6 7 5 5 6 6 6 4 5 6 6 4 4 2
6 5 12 19 24 19 11 9 11 17 12 11 5 5 9 12 9 9 1 2 4 1 11 1 13 16 20 18 14 11 10 4 8 12 4 1 6 2 6 6 3 5 2 4 2 5 6 8 4 5 2 2 7 9 10 7 10 10 12 12 11 11 8 11 12 13 8 10 17 15 8 9 7 6 11 10 7 7 8 9 7 5 2 2 3 5 5 5
1 5 4 3 8 9 19 28 30 25 21 18 4 11 12 16 13 8 5 4 5 4 6 11 15 17 20 18 16 11 15 9 7 5 6 6 7 6 4 3 1 5 4 4 2 1 4 2 5 4 3 3 4 10 8 12 5 4 8 9 10 10 14 16 17 16 15 14 17 14 10 16 9 7 9 8 8 7 3 1 1 2 6 7 5 5 6 6
9 15 5 6 3 11 12 15 5 7 10 9 4 11 13 19 20 7 3 8 6 7 0 13 13 11 14 17 16 16 19 19 17 10 1 13 4 2 5 5 7 2 2 5 4 1 6 4 8 4 4 4 5 8 8 8 8 5 4 6 9 11 13 16 14 13 8 8 10 5 5 14 7 8 5 6 5 0 1 2 6 9 7 7 7 7 7 7
2 2 1 18 9 11 11 14 15 17 12 9 5 8 8 15 15 13 3 1 18 11 7 17 15 12 10 16 12 15 15 10 14 19 19 21 18 13 13 5 8 9 5 4 2 0 3 1 1 5 7 4 3 8 8 6 4 5 4 7 12 13 12 10 9 8 5 11 12 7 10 16 3 5 6 6 4 4 7 8 8 6 6 8 9 9 9 8
1 1 4 9 6 13 17 14 13 12 13 15 12 13 12 19 13 12 9 3 2 6 14 17 15 16 6 11 14 14 11 14 16 15 17 11 10 5 3 12 15 16 9 10 3 8 7 7 7 5 8 6 3 4 7 8 5 1 8 17 18 13 12 9 10 9 13 15 10 11 19 13 4 7 9 5 3 6 7 7 5 3 6 10 12 12 12 10
Wind_Direction
233 237 230 220 209 201 199 192 182 179 179 182 180 178 177 177 171 164 164 158 157 158 153 149 148 144 140 136 135 133 129 99 120 144 199 237 143 125 123 130 143 131 104 68 35 56 48 44 43 337 331 9 290 66 247 128 156 75 160 131 274 201 155 229 201 187 188 137 196 189 197 124 123 119 129 73 55 88 71 80 31 45 43 78 108 124 135 144
228 239 229 216 210 203 196 197 189 178 178 182 180 179 178 178 174 165 163 157 157 155 154 147 145 144 135 137 139 147 121 98 167 202 217 165 133 132 135 134 139 144 103 80 95 104 109 41 53 4 341 342 312 242 161 272 108 135 181 121 219 197 228 210 240 158 123 185 160 177 171 163 168 137 192 99 129 115 85 45 70 77 59 82 106 123 135 145
226 237 236 219 210 199 196 193 194 182 180 179 181 179 177 176 176 166 162 156 156 154 152 147 143 140 141 141 149 165 108 68 148 243 233 164 151 140 143 146 140 164 127 134 142 113 98 124 90 82 320 340 297 257 15 266 119 233 115 239 250 213 287 0 359 199 172 139 142 163 200 152 193 130 184 132 156 139 146 133 64 118 131 131 130 132 141 150
223 231 233 228 211 196 208 200 190 186 179 179 179 178 175 173 176 171 161 156 156 153 151 147 144 146 143 147 158 159 109 95 243 228 179 166 158 148 146 145 148 145 109 105 132 109 128 81 48 60 350 346 294 310 196 257 114 265 109 205 235 259 287 305 358 318 161 149 155 163 135 132 193 160 140 147 115 197 186 179 157 170 155 151 150 147 147 154
229 231 229 233 222 196 202 199 193 189 181 178 177 175 172 171 174 174 162 156 155 154 151 147 147 146 147 157 164 138 105 19 248 202 171 168 163 152 144 142 152 148 126 129 107 112 105 81 69 61 41 306 343 312 230 230 209 104 207 214 232 311 95 275 300 322 165 138 134 142 133 188 132 99 151 151 161 196 194 201 176 158 158 154 158 161 154 161
232 234 230 228 224 205 204 195 189 185 184 181 177 173 170 168 170 173 165 156 154 152 151 148 145 148 153 162 123 151 159 203 267 154 217 169 167 159 151 145 146 130 134 118 116 128 109 73 86 61 44 34 304 331 285 284 172 247 291 229 202 235 165 290 341 330 265 131 139 138 186 113 144 177 187 148 164 226 198 185 170 158 167 166 155 154 162 166
230 231 234 225 215 217 208 184 200 189 186 179 176 172 167 164 167 168 165 157 152 150 149 147 146 147 156 118 88 106 204 257 71 235 146 178 166 158 148 142 136 139 140 118 124 125 116 113 87 130 137 50 294 267 284 282 211 187 236 304 337 334 160 246 359 334 33 132 155 152 138 132 138 149 209 140 251 196 241 228 165 165 152 142 152 168 169 173
226 224 229 226 212 211 213 192 195 188 181 177 174 171 166 163 162 164 163 158 152 148 147 147 148 154 138 128 112 174 213 236 212 251 111 162 162 148 132 131 145 157 150 154 142 134 124 132 150 133 58 122 238 183 297 323 272 197 252 249 211 65 289 312 54 6 27 55 68 112 135 172 161 169 127 207 180 195 109 104 140 137 148 159 159 168 175 177
223 220 221 221 215 204 210 199 186 190 178 175 173 169 166 160 159 161 161 158 152 148 147 146 155 153 152 134 153 124 225 218 72 149 134 141 145 132 131 135 161 161 165 156 160 161 121 183 141 164 152 195 309 318 288 281 304 219 222 144 126 87 93 294 72 13 34 15 98 87 83 1 196 124 178 187 195 207 127 101 120 137 148 162 170 170 171 179
221 218 216 213 213 200 201 204 190 181 175 177 170 168 166 158 156 158 159 157 153 148 147 150 152 155 141 119 114 193 238 107 90 111 125 137 137 144 149 144 159 159 125 156 128 165 138 180 149 141 101 253 248 265 284 232 223 265 204 152 143 181 128 288 130 211 330 85 49 122 129 102 302 151 248 212 183 156 114 121 134 144 161 167 170 175 179 178
221 217 212 206 206 198 195 202 190 172 175 175 171 167 164 157 152 154 155 155 153 151 149 153 154 150 146 162 158 208 355 85 147 122 125 122 141 156 158 154 163 150 152 152 170 173 133 131 116 125 56 212 271 259 253 292 312 295 133 60 79 133 159 158 101 196 73 3 100 109 96 237 330 66 221 192 185 157 130 140 149 154 164 170 175 178 185 188
221 218 211 202 201 194 192 194 189 171 172 171 171 164 161 156 150 152 153 154 153 153 155 157 156 154 143 166 190 195 300 127 149 137 133 145 161 159 132 151 164 163 154 155 185 168 144 128 111 113 162 57 281 326 279 296 341 281 155 236 284 60 113 166 143 214 99 257 155 138 98 288 258 221 226 199 161 159 141 156 161 165 170 172 177 181 185 195
221 217 211 201 197 189 189 191 186 176 170 167 166 165 158 154 149 148 150 149 153 152 159 153 150 135 141 169 218 249 125 135 133 119 117 111 100 75 106 146 154 168 171 147 168 173 130 120 103 125 211 97 296 269 301 313 263 268 337 136 6 8 316 239 169 122 118 258 51 191 208 253 229 231 244 182 151 128 132 158 175 175 173 176 175 180 190 191
217 214 208 200 197 186 184 187 182 170 167 164 164 161 156 151 148 145 147 147 149 154 154 153 124 91 162 191 146 215 145 127 116 117 135 128 118 88 106 109 126 127 28 178 152 151 132 125 127 162 86 213 254 309 320 313 272 184 237 123 204 98 269 247 163 168 128 241 91 88 191 279 261 262 206 200 160 150 167 182 185 184 188 177 179 180 187 193
214 209 205 197 195 184 182 180 180 167 162 162 159 159 151 149 146 144 144 143 150 152 147 138 68 105 142 207 347 290 114 119 128 151 152 137 132 95 133 141 132 114 40 105 131 139 128 123 138 192 204 229 234 268 291 269 312 223 174 244 237 150 278 309 272 164 157 285 76 107 270 237 260 290 197 176 174 156 171 185 190 192 190 192 181 185 188 195
210 204 197 192 190 181 180 176 171 168 161 161 158 151 147 144 142 144 145 142 135 126 139 137 146 1 119 171 207 125 114 152 178 159 187 138 156 164 156 129 111 94 90 21 10 97 118 120 172 177 204 138 242 241 283 356 314 261 154 259 205 148 242 357 261 206 149 130 21 168 204 316 298 240 194 180 168 172 170 187 193 199 197 191 193 191 193 196
203 197 193 187 188 184 172 172 172 162 165 156 149 144 140 139 133 129 128 121 126 131 136 97 87 254 152 306 83 162 178 194 136 140 139 175 134 130 122 121 125 111 81 54 50 114 120 159 174 125 210 188 179 186 225 272 286 286 128 202 212 180 199 234 305 227 180 143 202 230 185 237 256 271 221 199 160 159 174 193 196 197 198 195 192 194 194 198
195 192 189 184 182 185 170 163 168 163 157 152 143 138 136 133 124 116 110 108 89 78 88 39 69 91 275 129 189 192 145 126 154 155 149 176 134 143 140 148 123 129 120 112 315 145 183 167 163 203 159 208 183 186 188 213 193 176 154 202 281 307 178 191 156 237 137 229 184 174 239 273 272 260 234 221 197 174 196 195 197 196 197 199 194 194 198 200
189 187 184 182 180 180 172 162 160 162 149 145 136 128 124 119 111 100 118 131 121 124 151 203 170 186 202 197 161 129 159 142 114 136 150 123 153 135 100 67 134 135 157 166 228 135 182 89 169 177 193 194 203 203 175 212 175 201 175 181 204 208 237 209 229 282 171 174 205 178 208 232 246 258 251 254 224 189 211 211 210 209 204 199 198 202 201 205
183 182 180 178 176 176 173 164 159 150 144 135 131 128 124 131 129 131 144 167 190 177 275 176 178 131 45 120 161 130 92 126 127 191 133 133 127 132 115 131 143 140 145 185 145 187 143 167 193 200 192 197 205 191 162 219 253 271 310 185 210 214 260 300 279 281 25 133 217 206 220 230 248 229 242 218 204 235 249 229 222 214 202 202 204 204 207 207
178 178 178 175 174 174 168 161 161 146 147 140 143 149 156 158 146 158 167 181 189 214 98 152 183 200 147 129 118 132 135 150 108 158 166 156 137 126 164 131 155 165 185 148 143 219 118 185 217 192 195 187 200 194 187 221 249 252 261 200 255 209 220 261 267 293 330 149 264 214 244 258 254 251 242 221 152 220 216 218 223 222 213 204 202 208 209 214
175 175 174 174 172 169 161 153 152 152 143 147 154 174 154 161 29 152 141 157 185 208 16 167 205 261 297 149 154 136 121 107 82 196 290 142 178 134 212 149 163 170 167 128 104 129 185 207 198 200 191 195 197 194 204 216 240 244 234 206 226 245 163 271 344 12 295 80 263 351 224 254 248 246 249 178 196 221 212 201 206 203 215 217 212 213 215 222
170 171 170 170 172 167 154 150 150 152 145 150 168 176 163 137 111 97 74 91 149 193 27 162 193 239 153 157 152 139 140 159 161 183 187 172 168 169 150 139 159 153 149 156 167 144 189 233 212 199 196 201 213 200 203 223 233 237 269 104 218 205 143 252 292 42 4 124 249 27 320 278 286 273 253 231 205 229 215 211 222 200 202 210 211 201 201 213
166 165 165 166 164 162 152 148 148 148 167 160 159 162 138 127 120 125 102 108 143 222 213 208 176 200 164 157 191 152 153 160 139 182 174 163 163 172 139 156 148 154 180 170 162 166 187 174 205 187 200 205 207 211 202 208 224 239 198 166 164 159 209 154 210 100 329 12 78 27 348 304 261 270 280 251 225 239 231 218 238 245 231 219 220 218 207 202
163 160 160 160 157 150 149 142 151 163 154 147 120 150 159 139 134 134 105 106 83 192 188 149 208 187 182 358 141 133 103 118 173 162 168 161 147 131 183 158 136 184 169 171 149 165 215 219 150 181 197 205 211 211 206 177 215 237 234 185 195 185 126 80 105 96 34 321 295 123 1 290 278 248 236 238 244 233 227 206 224 225 230 232 231 223 222 226
161 158 159 155 152 148 143 152 158 150 147 162 160 160 154 151 148 136 110 85 156 167 127 182 198 186 143 156 142 129 118 152 178 172 157 182 165 151 139 183 148 177 169 155 163 180 190 182 163 192 182 198 206 206 214 175 194 195 257 183 160 141 123 132 140 91 73 187 304 88 181 266 324 299 250 256 250 252 250 215 226 221 228 224 226 225 214 213
159 158 155 154 151 144 144 169 139 139 152 170 169 146 153 143 101 111 110 30 176 176 157 132 179 162 150 172 154 135 155 193 37 140 162 186 174 283 145 178 114 117 159 141 115 237 93 146 192 205 179 185 194 206 227 169 159 221 240 134 121 116 129 168 139 134 188 235 324 57 126 193 291 281 267 249 229 250 252 242 241 230 228 226 227 224 215 214
159 155 154 150 150 160 152 135 150 162 165 153 167 140 132 128 102 59 76 144 218 128 190 167 192 330 78 168 161 162 227 128 121 208 188 199 110 304 154 172 166 163 168 142 191 263 153 174 186 188 185 183 202 192 192 163 153 214 215 152 149 155 166 138 128 136 129 114 269 319 249 231 258 269 297 307 266 292 262 242 240 234 228 229 229 224 219 212
161 153 155 154 159 152 115 144 158 153 119 103 119 111 110 93 106 136 157 178 106 121 95 138 331 145 122 147 165 117 133 159 151 173 169 163 327 147 166 185 156 157 174 175 179 197 295 178 190 180 174 202 200 202 175 167 139 257 166 91 82 85 85 127 102 110 15 86 254 250 190 195 279 277 323 340 270 269 254 241 237 231 225 223 225 228 220 216
158 155 153 152 141 115 139 135 130 118 126 137 135 116 110 122 116 169 168 219 133 150 183 112 181 166 161 161 157 157 150 144 81 125 153 165 200 34 78 139 129 126 103 34 118 199 202 322 163 96 199 179 136 104 146 226 171 124 90 73 42 40 50 31 73 98 78 277 250 232 250 162 285 269 214 201 223 208 241 283 275 260 252 247 241 233 221 218
157 156 149 149 152 146 125 140 138 129 126 134 134 127 128 38 169 154 183 157 116 115 123 159 156 149 157 159 152 187 131 123 131 141 162 163 142 149 125 79 51 74 65 60 63 339 10 21 86 269 95 131 107 80 1 101 133 130 111 122 81 2 15 31 351 41 144 261 263 244 201 163 202 289 274 240 278 249 217 233 245 254 245 241 234 223 205 183
157 152 153 156 141 149 149 155 151 143 141 141 133 143 148 140 345 183 161 141 155 178 159 153 169 160 167 174 151 162 147 125 152 159 163 179 168 171 191 172 161 152 172 173 182 30 35 333 259 1 238 153 116 93 347 20 7 89 104 116 135 191 43 320 19 227 229 210 258 334 198 3 242 229 258 273 264 284 237 208 226 229 240 232 197 183 176 181
156 152 155 137 137 147 132 135 139 143 140 145 146 151 164 155 174 186 124 176 194 164 191 162 168 167 168 155 154 139 138 145 187 166 148 144 146 209 252 141 196 156 168 211 109 86 281 282 350 310 11 215 154 156 181 99 282 116 146 147 131 122 115 195 260 231 307 292 269 241 308 256 241 279 245 247 256 250 237 243 220 183 184 190 193 191 190 202
155 148 144 144 139 131 131 135 138 143 149 166 149 152 164 169 182 167 152 186 159 173 147 165 154 149 161 165 164 155 140 144 154 163 155 158 166 182 217 245 169 134 101 172 147 178 131 271 257 150 191 189 107 172 171 164 158 192 151 157 172 147 152 192 179 197 213 207 281 281 90 234 130 244 239 241 259 280 221 232 237 218 193 185 190 190 220 229
148 144 130 126 118 134 139 139 143 149 159 160 159 164 161 177 170 173 163 164 139 141 150 142 146 145 170 158 156 163 135 137 177 145 171 157 189 188 191 195 197 120 121 135 233 129 189 160 275 303 234 13 180 260 127 99 60 273 181 90 138 209 139 150 202 159 183 176 4 260 208 184 178 251 284 226 288 262 352 247 84 161 184 169 164 195 213 224
141 138 129 133 133 151 141 149 148 153 160 161 163 169 182 178 172 173 182 146 150 152 150 143 148 156 158 149 173 168 188 124 198 147 183 190 186 190 197 169 183 174 164 169 150 137 88 218 332 311 30 85 222 288 305 145 168 227 115 196 208 152 102 103 55 143 111 56 255 178 315 285 297 313 274 296 235 251 277 249 243 239 236 269 229 228 226 222
129 130 128 138 135 155 148 153 155 157 164 171 166 184 185 172 199 129 138 158 155 138 145 149 177 152 167 168 168 173 177 112 175 154 192 160 198 204 190 205 173 166 177 130 187 196 148 213 331 49 195 310 194 169 297 44 162 104 155 220 217 139 122 135 191 13 121 184 259 119 206 288 356 279 312 352 317 275 271 259 247 248 240 229 237 240 225 207
128 119 125 142 149 148 148 155 154 160 170 172 188 179 73 121 183 120 119 122 137 147 147 154 166 169 170 167 183 173 169 159 184 169 172 175 239 188 184 186 200 184 169 170 139 221 115 70 306 280 211 274 342 33 64 312 185 153 187 205 129 223 233 284 110 209 183 236 261 261 241 258 177 236 329 298 237 255 250 237 244 242 228 225 232 248 263 253
120 127 108 144 148 142 146 155 151 159 171 187 189 161 179 239 168 138 147 145 150 154 154 175 145 209 166 176 166 163 166 177 164 184 150 209 198 182 186 170 185 168 169 155 148 172 99 137 291 310 100 249 15 90 191 212 311 194 40 64 54 110 187 130 198 171 123 248 167 289 88 234 212 217 207 244 232 235 252 241 231 225 224 221 218 222 219 209
133 114 113 153 147 140 144 148 146 176 189 190 175 184 171 176 153 142 148 146 156 152 177 156 168 146 175 173 157 161 186 161 167 184 178 174 183 207 177 175 175 182 171 160 159 162 163 112 156 275 291 88 183 193 207 161 159 216 85 209 235 15 232 113 35 139 172 182 180 196 301 281 257 214 197 248 262 262 222 228 233 237 241 230 226 209 210 214
112 109 124 150 143 141 135 132 162 184 191 188 131 117 170 167 142 152 153 153 144 324 151 163 160 163 164 144 167 158 148 154 169 179 180 161 181 161 209 175 145 171 133 147 134 170 94 79 145 167 89 207 242 227 186 187 209 179 169 189 178 131 126 162 246 16 107 143 226 169 249 265 270 203 200 233 251 264 262 228 249 257 250 230 223 225 208 213
125 125 138 152 151 149 144 152 191 189 163 166 171 159 164 139 142 158 151 158 147 134 126 142 158 147 148 158 159 162 155 164 172 167 197 161 190 112 188 153 156 151 161 176 167 234 140 128 109 158 207 188 227 274 224 237 147 211 155 229 183 171 111 126 187 238 27 260 116 142 208 263 242 216 222 226 253 258 278 250 241 256 254 230 226 225 225 216
126 97 138 154 164 159 159 168 165 159 169 225 345 13 115 142 146 161 147 164 154 153 139 163 168 144 181 152 154 153 157 167 170 185 144 138 176 202 172 161 145 158 143 193 111 181 83 103 83 7 21 306 314 297 301 55 83 301 266 137 148 207 202 179 169 182 163 210 189 268 246 249 281 260 255 256 259 271 274 235 250 261 249 246 226 206 174 141
117 126 120 161 170 172 161 161 160 191 194 124 96 184 351 161 149 161 159 167 152 164 158 148 166 171 154 161 156 166 166 137 214 144 123 162 181 176 159 159 159 164 169 198 168 200 104 252 116 107 36 352 340 348 344 332 56 166 208 201 168 232 63 190 105 68 155 213 176 139 243 267 273 274 282 276 288 287 274 274 201 228 251 240 221 214 181 148
112 68 74 141 171 182 185 195 179 169 173 169 171 166 160 78 241 166 156 164 124 146 132 162 158 132 114 151 160 156 173 161 144 233 98 119 140 354 30 172 167 173 184 173 160 148 99 178 139 146 157 166 188 212 211 207 192 231 215 180 187 181 170 133 191 232 201 271 139 183 254 235 273 323 307 280 310 291 258 249 266 218 214 213 226 194 178 161
149 127 132 86 135 207 280 37 77 143 154 156 156 191 108 128 126 3 149 153 182 107 102 120 100 118 132 137 139 157 176 193 150 181 157 168 145 326 253 193 180 168 153 147 139 139 132 158 198 175 178 190 198 170 51 104 121 185 208 179 195 186 182 151 122 141 204 206 188 224 232 231 250 259 265 271 273 253 274 271 248 247 256 252 216 185 182 184
140 138 155 147 104 231 203 177 149 171 185 175 166 176 163 154 154 93 341 132 224 139 118 141 154 142 169 149 162 167 170 113 71 136 169 142 268 177 32 119 55 67 131 118 154 99 108 159 220 193 202 186 120 159 175 150 174 202 177 198 190 172 173 164 181 218 152 91 252 238 231 226 233 234 260 267 273 268 257 248 244 245 241 210 203 191 167 146
137 193 171 169 157 171 189 238 199 185 187 181 163 134 157 144 162 153 43 342 137 177 127 318 166 164 163 162 149 154 163 140 149 164 130 74 112 96 76 358 76 305 137 130 143 129 149 187 224 127 198 165 153 142 155 162 178 188 190 187 182 186 163 183 210 218 149 189 228 235 227 239 228 215 227 228 212 220 225 229 222 210 208 212 181 159 154 162
47 121 154 50 353 186 184 182 177 179 175 179 140 157 155 159 170 160 149 138 141 191 157 157 182 167 165 153 153 159 164 142 195 157 152 157 145 127 83 70 72 16 100 121 110 146 117 208 189 137 158 101 143 148 165 160 176 151 189 196 197 174 193 199 212 214 193 212 229 235 234 244 227 224 225 232 230 222 249 115 105 164 208 194 174 171 175 180
157 154 148 204 358 148 78 74 78 146 175 184 148 191 165 166 162 145 133 143 147 187 343 156 165 156 156 162 161 166 183 183 159 140 185 124 149 105 152 180 154 11 68 142 147 309 122 241 140 130 120 187 189 157 165 164 146 185 203 188 182 195 209 214 218 227 226 266 267 305 330 282 237 190 222 246 255 37 82 147 197 211 197 180 176 184 193 194
329 339 261 164 149 146 126 152 163 173 173 204 182 189 162 172 164 158 141 211 167 164 166 167 149 144 158 164 169 177 179 146 152 161 162 149 169 186 148 233 150 138 138 116 108 103 97 198 69 123 152 215 240 162 176 136 120 150 187 189 194 191 205 221 223 218 176 223 242 260 265 254 247 153 224 228 205 174 200 209 215 212 194 178 181 195 198 199
355 294 104 130 84 153 155 162 168 160 194 196 184 181 176 180 163 148 134 21 31 163 157 141 149 139 172 164 183 181 162 155 165 156 165 156 132 121 94 149 154 152 164 170 163 150 159 140 153 155 161 219 260 109 110 91 91 279 233 210 195 195 200 207 223 213 205 209 220 227 235 240 143 191 218 227 168 221 232 228 230 229 214 189 191 197 202 198